Wetbulb
48.85 48.33 46.82 50.57 50.76 50.62 50.51 48.91 51.07 55.26 60.44 59.15 55.99 57.13 59.91 62.75 63.20 62.80 62.90 63.33 63.84 64.98 67.55 68.19 69.58 70.20 68.72 68.28 68.64 68.69 68.97 69.47 69.69 70.44 69.83 70.29 70.19 71.41 71.31 70.21 70.44 70.36 70.79 72.40
46.41 45.85 50.06 51.06 51.44 50.68 49.43 49.92 50.36 54.93 59.76 57.13 56.56 55.61 59.09 61.38 61.93 63.00 63.42 63.36 64.14 64.75 65.60 67.03 67.76 67.73 67.02 68.40 69.23 69.09 69.54 69.38 70.00 70.28 69.87 70.75 70.85 71.24 72.71 71.11 70.15 70.77 70.91 71.66
44.23 47.32 51.14 51.15 49.28 49.06 46.74 47.39 49.98 51.19 57.47 57.26 55.59 52.23 55.28 58.59 59.59 61.76 63.69 64.28 64.46 64.30 63.56 64.67 65.99 65.90 65.82 66.72 68.53 69.01 69.48 69.53 69.82 70.49 71.62 72.16 72.37 71.86 71.31 71.58 72.64 72.45 73.04 72.76
43.17 46.79 49.31 47.44 47.40 48.25 43.34 52.00 52.92 53.89 51.09 46.82 53.24 45.02 50.39 54.84 56.78 58.34 60.42 62.07 63.98 64.14 64.56 64.96 65.51 64.87 65.18 65.84 68.12 68.89 69.83 69.79 69.77 70.93 70.91 71.03 69.15 68.77 69.98 70.55 71.59 72.62 72.92 73.18
41.70 45.11 45.93 46.03 48.65 49.94 47.32 51.72 50.83 52.63 49.87 48.99 50.32 46.56 49.51 51.72 52.39 56.64 58.37 60.71 62.85 64.68 64.99 64.70 65.35 66.24 66.36 66.71 67.76 68.84 70.39 69.59 69.99 70.36 69.35 70.14 69.34 70.33 70.81 69.70 70.31 70.13 70.26 70.58
43.13 45.16 45.09 46.12 49.06 50.09 50.26 47.60 45.99 46.44 46.00 42.50 47.54 47.70 47.22 49.09 53.04 55.14 59.31 60.54 62.20 64.30 64.86 65.22 66.39 66.73 65.93 67.28 69.21 70.04 69.99 69.75 69.93 69.50 68.11 67.62 68.37 68.70 68.55 68.66 69.00 67.96 66.90 66.45
41.23 42.18 42.75 46.72 42.12 44.41 44.60 41.05 36.26 36.42 40.47 41.10 43.25 46.31 48.30 53.34 54.72 57.00 57.32 59.18 61.57 64.43 64.27 64.80 65.37 65.70 65.14 67.09 68.50 69.63 70.11 69.95 70.11 68.92 67.66 66.77 66.36 68.66 68.46 68.19 68.19 66.16 65.06 64.61
35.72 37.22 41.98 44.47 43.30 42.26 41.61 41.80 36.84 33.13 34.84 38.61 43.79 42.32 48.59 54.28 56.00 56.60 59.73 60.59 62.59 63.09 64.39 65.11 65.97 66.44 65.55 66.73 67.59 68.49 68.52 69.32 70.82 69.61 67.96 67.96 68.57 68.74 68.23 67.96 67.42 64.49 63.49 63.71
33.99 36.76 42.61 44.47 44.93 45.21 40.78 40.42 42.09 37.96 34.20 37.09 42.37 46.43 50.83 53.23 55.22 57.49 58.35 60.38 61.24 62.22 63.77 64.71 66.10 66.73 65.75 65.85 66.75 66.97 67.23 69.07 69.99 69.96 68.23 68.59 68.57 67.20 65.81 65.32 63.89 63.25 63.70 62.64
38.17 35.95 41.15 42.30 43.54 43.22 40.93 43.57 37.91 36.09 34.19 32.82 36.85 40.45 43.61 48.49 51.94 56.05 57.60 58.35 60.14 61.20 63.56 64.53 65.93 66.54 66.29 65.75 66.76 68.13 68.25 68.42 68.73 68.49 68.37 67.37 65.73 64.77 64.00 63.58 63.24 63.45 62.28 61.63
37.11 37.78 39.08 40.03 39.08 39.94 39.59 38.98 37.23 37.51 36.01 34.36 33.29 37.80 47.17 50.48 50.74 53.78 57.10 59.23 59.89 60.74 63.55 64.57 65.81 66.26 66.34 66.78 68.67 68.55 68.50 68.73 68.70 68.68 66.14 65.12 63.73 63.16 63.05 62.74 62.40 61.20 60.53 59.40
42.36 35.56 35.27 39.19 39.91 41.07 40.68 40.69 38.41 35.17 33.92 33.35 34.51 38.02 46.87 51.35 51.63 54.71 56.60 58.58 60.12 61.53 63.43 65.07 65.57 65.10 66.01 68.49 69.34 68.58 69.17 68.87 68.77 66.74 64.81 63.79 62.81 63.10 62.29 61.20 60.33 60.14 57.91 54.14
46.11 37.42 33.03 37.62 38.58 38.91 39.04 39.29 36.86 36.07 34.76 33.45 34.77 38.06 46.13 51.78 54.73 55.21 55.90 57.49 59.21 61.05 62.82 64.59 65.00 64.93 66.44 68.89 69.49 69.19 69.36 68.54 66.97 64.80 63.48 62.90 62.21 61.42 60.63 59.69 59.17 57.84 54.28 51.61
49.24 34.83 35.68 33.49 37.31 37.56 37.85 40.71 39.00 38.01 34.92 35.06 36.49 40.83 45.71 46.10 53.10 55.32 56.11 56.91 57.94 61.89 62.61 64.65 66.62 66.81 67.74 69.14 69.32 69.17 68.94 67.78 65.81 63.64 62.72 62.03 61.01 60.30 59.60 57.67 55.69 52.60 50.80 49.48
45.62 40.31 37.52 40.46 42.53 40.69 40.87 40.91 40.40 39.34 38.50 39.36 40.17 40.41 44.59 46.86 47.76 53.47 56.73 59.51 61.09 61.38 63.10 66.09 67.29 67.76 68.48 69.15 68.92 68.78 67.61 65.69 63.98 61.86 61.13 60.32 59.66 59.13 57.41 54.52 52.84 51.40 50.70 49.31
44.51 41.80 41.16 43.33 44.25 43.40 40.53 41.73 41.41 41.06 40.86 40.75 40.83 42.02 45.87 51.57 54.47 55.43 57.46 61.05 61.24 61.68 64.02 66.79 67.84 68.25 68.34 68.59 67.98 67.33 65.64 63.74 62.88 60.93 60.10 59.45 58.64 57.73 55.68 53.50 51.51 49.19 47.52 47.01
43.19 41.60 40.49 39.27 43.19 41.84 37.55 42.28 41.63 50.13 51.58 47.17 43.63 47.41 52.95 55.34 57.04 55.30 56.52 62.26 62.15 62.66 65.19 66.61 67.87 68.26 67.90 67.74 66.53 63.97 63.11 62.57 62.05 60.94 59.21 58.62 57.74 56.16 55.21 53.04 49.19 48.36 48.28 48.89
43.30 41.44 39.48 39.62 40.29 33.99 40.42 50.87 50.46 52.67 53.62 53.70 53.12 54.33 55.64 56.09 58.78 59.07 57.00 60.39 63.38 64.77 66.07 66.86 67.83 68.15 67.40 65.90 63.95 62.65 62.30 61.24 60.15 59.86 58.64 57.75 56.58 55.35 54.74 53.27 51.65 52.21 52.57 52.11
44.98 42.76 39.06 39.13 37.32 41.54 46.86 50.42 50.82 49.44 49.59 55.32 53.56 55.39 56.65 58.06 57.25 53.65 58.15 60.37 64.35 66.10 67.16 67.63 68.24 67.78 65.52 64.24 63.18 63.00 61.96 60.87 59.75 58.06 57.57 56.95 55.80 54.44 54.36 53.49 53.01 53.31 53.30 53.05
44.76 44.72 41.78 38.30 38.14 36.55 43.68 52.34 54.90 53.84 45.95 55.34 55.58 55.35 55.61 56.93 52.87 51.53 59.68 61.62 66.02 67.54 67.83 67.65 67.64 66.44 64.85 63.44 63.77 63.07 61.67 60.40 59.51 58.16 57.88 57.02 55.58 54.64 53.85 53.52 53.01 53.43 53.66 53.60
42.00 41.27 40.06 39.33 39.74 42.29 49.73 53.55 55.37 44.65 46.32 55.46 56.01 55.77 56.55 56.02 57.80 59.32 62.52 62.26 66.94 67.81 67.73 67.61 66.37 65.05 64.39 63.84 64.35 63.47 61.25 59.88 59.79 58.88 57.39 56.05 55.40 54.62 54.29 53.48 53.57 53.85 54.25 54.56
42.44 41.72 40.86 39.59 36.99 39.76 52.95 53.01 48.73 51.28 54.69 55.62 55.97 57.03 56.61 59.21 62.46 62.41 63.03 65.33 66.62 66.62 66.42 66.10 65.55 64.61 64.08 64.73 64.51 61.73 60.34 60.22 59.51 58.06 56.73 55.54 54.86 55.44 54.10 53.60 54.00 54.44 54.24 54.62
43.43 45.76 44.14 45.17 43.94 49.42 52.81 54.62 56.15 56.00 54.48 55.31 55.32 56.61 57.31 61.41 62.96 63.82 64.04 64.31 65.47 66.04 65.64 65.97 65.50 64.43 64.36 64.38 63.29 61.02 59.85 59.51 58.89 57.46 55.85 55.17 55.05 54.91 54.03 53.80 53.65 53.65 54.14 54.16
44.89 50.09 46.91 45.91 48.62 50.77 53.53 54.48 56.05 57.73 56.55 56.84 57.40 57.38 57.76 60.84 63.63 63.66 64.07 64.94 65.12 65.32 64.51 64.74 63.75 63.10 62.33 62.78 62.53 62.40 59.68 60.23 58.69 56.24 55.34 54.89 54.61 54.34 54.05 54.30 54.46 54.34 53.74 53.95
43.58 48.80 47.19 46.21 48.12 50.44 53.21 54.56 56.27 57.28 58.10 58.16 58.66 58.29 57.37 59.84 63.31 63.99 63.64 63.87 65.52 64.82 63.90 63.77 62.90 62.39 62.03 61.81 60.70 60.17 60.90 60.32 57.95 56.66 55.50 54.67 54.86 54.56 53.69 54.56 54.57 54.67 55.57 54.54
44.16 46.21 43.92 41.80 44.82 48.30 50.53 55.36 57.94 57.10 57.66 58.63 58.33 58.38 57.57 61.16 62.71 61.81 62.39 62.76 64.08 63.51 63.97 63.15 62.79 61.75 60.07 60.41 60.23 60.38 60.58 59.99 57.62 56.31 55.61 54.63 54.49 54.13 54.38 54.24 54.52 51.67 51.37 49.95
MSLP
1003.73 1004.42 1004.66 1004.61 1005.07 1005.39 1005.71 1005.85 1005.85 1005.47 1005.58 1005.96 1006.57 1006.66 1007.02 1007.10 1007.97 1008.32 1008.41 1008.65 1008.92 1008.86 1008.89 1009.27 1009.37 1009.66 1010.25 1010.73 1011.33 1011.76 1012.45 1012.99 1013.63 1014.23 1014.67 1015.07 1015.14 1015.14 1015.20 1015.18 1015.44 1015.60 1015.73 1015.94
1004.60 1004.73 1004.26 1004.49 1004.82 1005.20 1005.40 1005.63 1005.52 1005.19 1005.27 1005.86 1006.28 1006.65 1006.65 1007.17 1006.78 1006.99 1007.65 1007.96 1007.90 1008.14 1008.61 1008.78 1008.94 1009.51 1010.03 1010.51 1010.98 1011.48 1012.04 1012.79 1013.35 1013.87 1014.43 1014.58 1014.67 1014.84 1014.94 1014.92 1015.41 1015.47 1015.46 1015.70
1004.60 1004.41 1004.12 1004.35 1004.64 1004.91 1004.96 1005.26 1005.42 1005.30 1005.60 1006.31 1006.56 1006.66 1006.61 1006.37 1006.62 1006.93 1006.90 1007.03 1007.25 1007.20 1007.94 1008.37 1008.69 1009.00 1009.65 1010.14 1010.53 1010.96 1011.64 1012.35 1013.21 1013.72 1014.26 1014.54 1014.82 1014.99 1014.72 1014.47 1015.01 1015.05 1014.99 1015.40
1004.54 1004.24 1004.27 1004.26 1004.26 1004.38 1004.39 1004.58 1004.86 1005.30 1006.13 1006.67 1006.69 1007.08 1006.78 1006.09 1006.04 1006.26 1005.98 1006.13 1006.21 1006.54 1007.20 1007.72 1008.20 1008.66 1008.94 1009.54 1010.24 1010.57 1011.28 1012.10 1012.81 1013.39 1014.10 1014.28 1014.36 1014.77 1014.64 1014.85 1015.09 1015.21 1015.17 1015.43
1004.48 1004.15 1004.01 1003.94 1003.85 1004.03 1004.00 1004.03 1004.83 1005.31 1006.48 1007.22 1007.55 1007.80 1005.65 1005.98 1005.61 1005.10 1004.70 1004.93 1005.27 1005.59 1006.12 1006.78 1007.31 1007.58 1008.14 1009.06 1009.68 1010.39 1011.15 1011.82 1012.42 1013.19 1013.83 1014.15 1014.35 1014.42 1014.69 1015.07 1015.17 1015.37 1015.88 1015.85
1004.61 1004.09 1003.81 1003.55 1003.49 1003.43 1003.65 1004.25 1005.39 1006.52 1007.62 1008.40 1007.24 1007.77 1005.79 1004.98 1003.67 1003.38 1003.45 1003.71 1004.35 1004.94 1005.37 1005.97 1006.50 1007.36 1008.14 1008.92 1009.57 1010.20 1011.03 1011.68 1012.25 1012.93 1013.66 1014.10 1014.11 1014.42 1014.76 1015.19 1015.45 1015.92 1016.25 1016.54
1005.15 1004.34 1003.63 1003.24 1003.62 1003.62 1004.10 1005.38 1006.69 1008.16 1009.15 1008.82 1007.69 1007.90 1005.28 1003.15 1002.51 1002.53 1002.96 1003.05 1003.34 1003.81 1004.73 1005.63 1006.36 1007.05 1007.81 1008.54 1009.31 1009.95 1010.80 1011.59 1012.09 1012.82 1013.40 1013.83 1014.01 1014.25 1014.60 1014.95 1015.36 1016.01 1016.34 1016.76
1005.95 1004.71 1003.51 1002.98 1002.99 1003.40 1004.22 1005.30 1006.89 1008.24 1009.45 1008.96 1008.20 1006.91 1004.25 1002.57 1001.91 1002.02 1002.19 1002.17 1002.80 1003.36 1004.03 1004.88 1005.69 1006.49 1007.33 1008.27 1009.22 1009.63 1010.55 1011.29 1011.70 1012.33 1012.90 1013.32 1013.98 1014.22 1014.53 1014.86 1015.39 1015.93 1016.32 1016.70
1006.15 1004.89 1003.45 1002.85 1002.54 1003.00 1004.62 1005.51 1006.07 1007.86 1009.34 1009.17 1007.76 1006.07 1003.75 1002.38 1001.82 1001.86 1002.16 1002.31 1002.61 1003.06 1003.72 1004.47 1005.32 1006.16 1007.09 1007.87 1008.55 1009.23 1010.19 1010.82 1011.47 1011.98 1012.67 1013.25 1013.87 1014.29 1014.71 1015.06 1015.33 1015.94 1016.51 1016.92
1005.80 1005.53 1003.79 1003.18 1002.94 1003.31 1003.84 1004.84 1006.52 1008.11 1009.15 1009.21 1007.75 1006.27 1004.08 1002.51 1001.63 1001.71 1002.12 1002.27 1002.78 1003.06 1003.76 1004.49 1005.19 1006.01 1006.76 1007.54 1008.18 1008.97 1009.90 1010.43 1011.15 1011.97 1012.54 1013.19 1013.64 1014.25 1014.74 1015.29 1015.80 1016.13 1016.67 1017.12
1006.08 1006.07 1004.67 1003.92 1003.61 1003.87 1004.59 1005.21 1006.73 1007.96 1008.61 1008.74 1007.74 1005.81 1002.67 1001.97 1001.11 1001.13 1001.25 1001.51 1002.09 1002.88 1003.52 1004.22 1004.89 1005.64 1006.40 1007.20 1008.12 1009.18 1010.20 1010.75 1011.33 1011.91 1012.57 1013.31 1013.86 1014.67 1015.15 1015.81 1016.38 1016.51 1016.97 1017.45
1006.34 1006.62 1006.03 1004.41 1003.48 1003.34 1003.54 1004.48 1005.88 1007.80 1008.81 1008.69 1007.46 1004.19 1001.41 1001.13 1001.18 1001.22 1000.90 1001.10 1001.60 1002.35 1003.14 1003.80 1004.47 1005.44 1006.29 1007.14 1007.99 1008.95 1009.90 1010.62 1011.28 1012.06 1012.84 1013.48 1014.16 1014.89 1015.47 1015.96 1016.47 1016.75 1017.05 1017.48
1006.37 1007.20 1006.75 1005.09 1004.62 1003.83 1003.83 1004.22 1004.99 1006.21 1007.25 1007.74 1006.90 1003.71 1001.19 1000.97 1000.81 1000.96 1001.09 1000.96 1001.27 1002.18 1003.00 1003.63 1004.33 1005.06 1006.00 1007.11 1007.93 1008.82 1009.75 1010.47 1011.10 1011.89 1012.90 1013.50 1014.23 1015.02 1015.78 1016.29 1016.60 1016.93 1017.24 1017.78
1006.66 1007.77 1007.91 1007.48 1006.48 1005.52 1004.54 1003.88 1004.50 1005.10 1006.61 1006.38 1005.36 1003.25 1001.44 1001.04 1001.05 1000.79 1001.09 1001.02 1001.31 1001.80 1002.54 1003.25 1004.14 1004.93 1005.76 1006.52 1007.35 1008.43 1009.27 1010.03 1010.84 1011.56 1012.58 1013.44 1014.11 1015.09 1015.85 1016.61 1017.18 1017.50 1017.66 1017.99
1007.09 1007.76 1007.65 1006.91 1006.02 1005.38 1004.23 1003.85 1004.10 1004.27 1004.22 1004.51 1003.81 1003.24 1001.85 1001.93 1001.18 1000.66 1001.06 1001.61 1001.53 1001.70 1002.24 1002.86 1003.69 1004.64 1005.41 1006.35 1007.29 1008.18 1009.03 1009.92 1010.73 1011.82 1012.89 1013.54 1014.45 1015.31 1016.04 1016.87 1017.36 1017.97 1018.33 1018.49
1007.81 1007.94 1007.72 1007.04 1005.99 1005.29 1004.30 1003.49 1003.65 1004.21 1003.80 1003.47 1003.01 1002.68 1001.76 1001.62 1001.01 1000.64 1000.31 1000.76 1001.26 1000.86 1001.39 1002.57 1003.45 1004.28 1005.21 1006.15 1007.12 1008.49 1009.77 1010.80 1011.64 1012.43 1013.60 1014.26 1014.82 1015.64 1016.28 1016.96 1017.57 1018.10 1018.53 1018.65
1008.56 1008.41 1008.38 1007.62 1006.48 1005.58 1004.69 1003.69 1003.41 1003.82 1003.82 1003.66 1003.22 1002.53 1002.33 1001.57 1001.26 1000.63 1000.26 1000.33 1000.25 1000.87 1001.69 1002.55 1003.17 1004.13 1005.23 1006.41 1007.65 1009.15 1010.34 1011.93 1013.35 1013.47 1014.12 1014.60 1015.25 1015.92 1016.63 1017.30 1017.76 1018.15 1018.56 1018.70
1008.51 1008.72 1008.76 1008.31 1007.25 1006.29 1004.67 1003.59 1003.23 1003.30 1003.67 1003.63 1003.46 1003.26 1003.07 1002.46 1001.17 1000.12 999.69 999.45 999.66 1000.79 1001.14 1001.90 1002.72 1003.93 1005.13 1006.15 1007.37 1008.33 1009.10 1009.65 1010.61 1014.08 1014.34 1014.60 1015.47 1016.16 1016.71 1017.28 1017.77 1018.21 1018.41 1018.64
1008.28 1008.69 1008.93 1008.68 1007.75 1006.39 1005.07 1003.99 1003.98 1003.67 1003.53 1003.29 1003.33 1003.17 1003.10 1002.26 1000.97 999.95 999.39 999.23 999.56 999.88 1000.53 1001.37 1002.10 1003.22 1004.57 1005.72 1006.73 1007.71 1008.89 1008.91 1009.52 1010.37 1012.86 1014.39 1015.49 1015.83 1016.71 1017.28 1017.60 1017.99 1018.37 1018.74
1008.58 1008.90 1009.04 1009.09 1007.69 1006.51 1005.18 1003.79 1003.69 1003.91 1003.50 1003.13 1003.34 1003.37 1003.32 1002.51 1001.83 1000.34 999.64 999.64 999.26 999.43 999.93 1000.68 1002.06 1003.33 1004.03 1005.08 1005.71 1006.60 1007.75 1008.38 1008.83 1009.90 1011.79 1013.76 1015.19 1015.50 1016.28 1017.12 1017.70 1017.89 1018.11 1018.62
1009.18 1009.52 1009.39 1008.82 1007.82 1005.73 1004.70 1004.19 1003.75 1004.62 1003.92 1003.24 1003.28 1003.52 1003.57 1003.47 1002.61 1000.99 1000.24 999.61 999.30 999.33 1000.09 1001.08 1001.82 1002.43 1003.33 1004.42 1005.06 1006.13 1007.53 1008.23 1009.23 1010.45 1011.36 1013.41 1014.92 1015.49 1015.99 1016.88 1017.16 1017.60 1018.04 1018.34
1009.51 1009.69 1009.55 1008.89 1008.13 1006.44 1004.94 1004.20 1004.48 1004.13 1003.45 1003.71 1003.37 1003.32 1003.52 1003.04 1002.09 1001.34 1000.41 1000.14 1000.06 1000.14 1001.33 1002.29 1002.71 1002.94 1003.28 1004.30 1005.72 1007.28 1008.59 1009.21 1010.17 1010.77 1011.62 1012.46 1014.09 1015.11 1015.81 1016.46 1017.19 1017.32 1017.85 1017.96
1009.62 1009.27 1009.21 1008.58 1007.30 1005.99 1005.44 1005.01 1004.45 1004.55 1004.79 1004.55 1004.18 1003.13 1003.06 1002.82 1002.31 1001.99 1001.57 1001.25 1001.39 1001.59 1002.10 1002.75 1003.33 1004.22 1005.52 1006.13 1006.43 1007.70 1008.77 1009.08 1010.24 1011.05 1012.15 1012.74 1013.49 1014.50 1015.26 1016.11 1016.78 1017.20 1017.78 1018.06
1009.18 1008.91 1008.90 1008.47 1006.84 1006.31 1005.54 1004.96 1004.88 1004.65 1004.50 1004.28 1004.08 1003.47 1002.49 1002.81 1002.73 1002.60 1002.48 1002.14 1001.94 1002.28 1002.97 1003.60 1004.52 1005.45 1005.84 1006.00 1006.55 1007.78 1009.05 1009.86 1010.25 1010.84 1012.07 1013.32 1013.68 1014.37 1015.08 1015.96 1016.43 1016.80 1017.24 1017.58
1009.28 1009.14 1008.54 1008.18 1007.08 1006.21 1005.63 1005.34 1005.03 1004.49 1004.26 1004.05 1003.74 1003.29 1002.25 1002.44 1002.71 1002.94 1002.94 1002.44 1002.08 1002.79 1003.22 1003.76 1004.73 1005.73 1007.23 1006.91 1006.96 1007.57 1009.30 1009.88 1009.78 1010.51 1011.42 1012.91 1013.71 1014.10 1014.76 1015.56 1015.96 1016.41 1016.59 1016.96
1008.80 1008.13 1008.14 1007.41 1006.32 1006.26 1006.08 1005.44 1005.01 1004.63 1003.94 1003.46 1003.21 1002.66 1001.94 1002.30 1002.57 1002.99 1003.33 1003.01 1002.50 1002.32 1002.84 1003.17 1003.29 1003.84 1004.94 1008.40 1007.34 1008.40 1009.19 1008.96 1009.70 1010.54 1011.29 1012.50 1013.33 1014.11 1014.76 1015.49 1015.87 1016.15 1016.39 1016.47
Wind_Speed
3 6 5 10 6 5 3 2 5 3 5 5 6 5 11 16 13 12 11 10 11 13 11 8 10 11 7 7 8 9 9 8 7 3 3 1 3 2 2 3 4 3 2 1
5 5 10 0 5 3 3 4 4 4 8 5 6 10 6 11 19 18 14 13 14 13 10 9 10 7 9 8 8 9 9 8 6 4 2 3 3 3 2 2 3 4 4 4
7 5 6 5 3 3 4 4 3 6 2 2 2 5 4 7 4 7 11 13 14 16 12 9 11 12 8 10 11 10 10 11 7 7 3 1 3 2 2 2 2 2 3 3
4 3 8 5 4 6 6 8 6 4 3 5 2 8 5 7 10 12 15 12 14 13 10 10 13 10 11 11 8 10 10 11 9 8 5 4 4 4 2 3 2 4 5 4
7 1 3 4 7 7 7 3 2 4 4 2 3 2 10 1 6 17 19 18 14 12 13 14 15 16 11 10 10 8 10 10 10 10 8 5 4 3 3 3 5 6 5 6
6 2 2 4 2 4 1 3 6 6 4 1 8 7 10 6 10 5 15 17 17 12 12 13 13 9 7 7 7 9 11 11 11 11 8 8 6 5 4 4 4 4 3 4
6 5 3 4 3 2 6 7 4 4 2 8 3 4 12 12 8 8 7 11 15 16 12 11 13 13 10 12 12 10 11 10 11 12 10 6 5 6 5 4 5 5 3 2
4 8 8 4 8 8 6 9 8 6 5 6 2 7 12 8 7 6 4 8 8 12 13 15 16 14 13 13 11 12 11 10 11 10 8 6 5 3 3 4 6 4 4 4
5 8 5 5 4 9 3 3 5 7 2 2 5 8 11 6 10 5 5 5 8 11 12 14 14 14 13 12 14 14 12 9 9 9 7 6 5 5 5 6 7 5 6 5
5 3 5 2 3 3 5 6 3 3 3 4 5 5 8 6 11 7 8 10 8 7 8 11 12 12 11 11 11 11 11 12 10 9 8 7 7 7 7 8 8 8 7 6
2 3 8 2 6 9 0 1 6 5 5 6 3 9 10 11 9 9 11 9 9 10 10 11 11 11 12 12 12 12 11 12 11 10 9 9 9 8 7 8 7 7 7 6
1 4 5 13 3 3 6 11 7 7 4 2 3 9 5 12 4 6 10 8 6 10 11 12 13 13 13 13 12 12 12 12 11 10 10 10 10 9 9 8 7 7 9 6
1 3 5 12 8 3 5 6 6 6 4 7 7 9 2 5 6 7 10 8 8 9 11 12 13 14 14 13 13 13 13 13 12 12 11 11 10 9 8 7 7 7 8 6
5 3 6 6 10 5 6 4 5 7 6 6 8 8 13 8 9 6 8 7 8 10 13 12 12 12 13 14 15 15 14 14 14 13 13 11 11 9 8 6 6 6 6 7
4 2 2 8 10 5 5 3 5 8 6 8 5 8 9 9 11 7 6 5 8 12 13 15 15 14 15 15 14 14 14 14 14 13 11 10 10 8 8 7 6 5 5 5
3 3 2 7 5 7 6 6 5 6 1 7 4 7 6 8 8 5 8 11 11 14 15 14 15 17 18 16 15 13 11 10 10 11 9 9 10 9 9 8 7 6 5 5
2 2 2 5 4 9 4 4 2 4 4 4 3 4 8 11 13 8 7 10 15 11 12 13 16 16 15 14 14 15 15 11 4 7 9 10 10 10 9 8 8 7 6 5
4 4 3 4 6 3 5 6 3 9 6 1 4 8 8 12 17 17 9 11 11 10 15 16 16 15 16 16 17 18 17 18 18 8 9 10 10 9 9 9 8 5 4 5
9 3 3 4 6 6 2 4 4 3 1 1 7 9 9 12 11 5 5 5 5 12 16 16 17 19 18 19 20 19 16 18 19 18 14 12 10 11 9 9 8 5 4 3
6 3 3 3 5 7 6 5 4 3 1 4 3 8 11 12 6 6 5 7 7 15 17 19 19 17 19 19 20 21 18 18 19 19 16 13 11 12 11 9 7 3 3 3
3 2 4 3 5 6 3 9 2 3 7 4 3 6 5 4 6 13 18 9 6 14 17 17 19 20 20 20 20 18 16 15 14 16 16 13 10 10 10 8 4 5 4 4
3 2 3 3 3 5 5 2 3 4 4 5 4 2 8 11 14 11 7 3 5 11 12 12 13 14 17 17 14 12 11 11 12 14 14 14 12 9 8 10 4 5 5 5
3 6 3 7 7 4 4 4 5 0 2 5 7 5 4 11 8 8 4 7 7 9 10 8 7 7 7 8 10 12 7 13 13 13 12 12 12 10 10 9 7 4 4 3
3 3 3 2 3 5 6 6 5 2 4 7 8 12 3 5 8 4 2 7 7 7 7 7 7 6 9 12 12 5 12 12 13 14 12 9 11 9 8 6 6 5 5 5
4 4 3 5 7 6 6 4 5 7 7 10 8 8 5 4 7 4 3 5 8 8 10 11 10 9 4 2 8 14 13 14 13 13 12 10 8 9 8 6 6 6 5 6
6 7 6 8 6 4 6 4 2 9 11 8 7 6 5 5 6 3 3 4 5 12 9 13 16 14 14 9 9 10 13 13 13 12 10 9 7 6 6 5 4 5 6 11
Wind_Direction
359 87 183 219 174 148 173 233 252 233 182 153 238 264 201 201 202 205 210 212 218 220 227 220 214 209 178 169 159 169 157 164 146 145 116 162 209 177 195 210 192 183 110 156
40 201 225 226 146 175 180 230 277 263 168 166 170 250 231 200 212 204 206 219 219 231 212 211 219 187 180 178 170 160 161 156 151 129 160 179 159 181 160 185 200 196 196 196
156 231 156 140 163 174 192 179 222 240 75 59 161 279 207 231 210 213 214 214 219 218 206 191 209 199 169 178 176 170 161 152 153 150 151 118 76 56 169 178 118 208 182 202
211 237 191 165 202 156 268 193 205 207 109 251 5 280 214 240 227 219 222 210 214 207 192 188 198 201 192 194 174 164 151 153 162 155 179 188 168 159 199 79 105 80 69 67
242 171 173 171 205 181 228 226 229 201 162 98 343 60 272 189 252 225 222 213 211 205 194 183 195 205 200 169 167 162 150 161 161 172 185 201 169 145 116 107 93 83 60 66
232 284 192 211 169 199 185 73 46 52 91 16 218 157 284 225 221 244 221 216 202 192 196 189 193 180 184 149 154 150 160 170 166 171 181 203 181 158 140 138 115 104 97 72
324 261 255 180 156 304 76 61 343 2 19 219 27 113 236 286 244 235 200 218 193 184 178 167 173 177 169 167 167 159 159 170 167 172 175 193 212 177 172 150 135 139 119 100
149 315 182 191 173 185 182 155 157 211 199 249 344 221 253 252 288 263 219 206 178 175 176 175 181 181 174 169 165 157 160 163 165 167 172 165 192 165 140 140 132 126 116 106
164 275 292 217 152 132 188 168 181 114 22 109 223 287 297 270 283 262 187 180 189 177 176 178 175 175 171 166 162 160 159 153 159 159 146 147 143 130 127 122 114 117 113 112
238 272 205 294 81 9 150 169 73 8 175 240 275 277 241 279 277 237 204 213 185 171 159 163 165 169 165 164 151 149 163 159 151 141 140 133 123 122 119 114 119 113 103 101
140 126 282 118 178 185 86 331 46 123 136 173 229 262 216 231 241 231 220 204 188 173 167 162 161 167 162 158 155 141 147 143 140 137 129 126 121 117 108 109 113 120 116 111
247 154 242 229 285 226 173 190 146 126 242 221 173 271 196 229 238 236 249 205 191 159 164 163 163 159 165 161 145 142 144 142 137 127 124 124 118 122 122 125 128 121 116 103
306 347 347 344 357 354 200 186 139 120 89 200 149 263 113 259 257 233 242 224 180 151 157 159 159 167 163 154 148 148 150 140 136 132 133 134 129 129 129 131 126 118 115 103
112 124 143 192 235 221 289 200 152 132 129 178 221 259 285 303 271 239 233 213 177 163 168 165 160 161 159 155 153 153 148 145 143 141 142 142 139 139 135 120 117 118 117 119
82 189 208 241 257 242 249 248 178 179 195 158 226 202 269 301 283 273 184 239 170 173 171 171 160 158 158 156 152 152 146 148 145 137 138 144 130 125 121 122 123 116 114 118
350 261 59 307 329 3 288 300 253 278 214 285 204 256 206 283 286 256 202 171 210 190 177 163 157 157 163 159 155 142 130 121 128 128 133 137 130 134 138 140 135 127 126 124
256 164 47 268 350 320 337 304 233 97 11 315 216 272 334 325 315 276 241 202 196 186 165 159 162 164 158 146 131 122 114 100 97 135 141 145 141 148 147 140 136 142 143 133
217 159 155 241 16 276 247 340 176 138 188 220 292 302 302 291 294 278 233 210 198 175 156 159 158 153 149 138 132 133 149 149 139 167 158 148 155 148 144 149 152 139 139 140
200 130 168 181 168 283 110 314 304 212 184 86 330 320 315 308 300 320 323 245 177 162 166 165 160 155 146 147 147 145 164 161 161 154 159 160 161 151 155 160 156 153 140 145
81 77 144 100 175 188 217 276 226 275 301 337 2 329 332 334 9 270 354 315 162 161 164 162 157 153 151 156 155 159 174 170 169 159 153 148 160 158 162 163 160 149 144 154
336 349 184 196 262 284 232 296 67 228 225 327 349 327 325 317 232 291 308 283 181 162 162 155 156 163 165 162 165 165 171 169 150 149 139 144 159 161 159 154 147 151 149 139
195 205 222 124 265 242 352 4 185 253 351 318 312 288 325 300 308 309 321 14 128 140 138 149 158 167 168 165 151 139 147 132 141 147 147 146 152 164 157 154 155 152 160 163
254 189 212 178 212 249 301 262 264 195 280 301 307 308 325 316 326 328 14 65 81 119 140 157 164 146 114 140 141 125 145 142 149 137 146 155 155 157 158 155 160 146 166 177
247 164 199 356 239 248 265 277 266 265 259 273 280 289 338 301 308 321 72 101 113 110 87 77 77 105 132 130 123 121 152 153 152 140 149 158 161 155 148 156 168 171 180 190
217 140 213 265 293 271 260 259 282 299 274 269 255 281 292 289 273 256 157 155 131 107 107 100 100 86 36 329 121 141 165 174 151 147 148 158 164 159 152 170 180 196 208 185
188 202 176 225 217 172 251 295 240 283 295 296 300 305 333 268 245 265 248 263 176 151 161 159 158 148 144 205 147 169 176 162 149 150 147 159 151 153 155 174 208 241 234 212